Stündliche Wetter Holubivka

Heute, 15 Juni, Dienstag

Zeit Temperatur Niederschläge Wind Luftdruck Luftfeuchtigkeit
00:00 +21°C° 0 mm 2 m/S 750 mmHg 74%
01:00 +20°C° 0 mm 2 m/S 750 mmHg 76%
02:00 +20°C° 0 mm 2 m/S 750 mmHg 79%
03:00 +19°C° 0 mm 2 m/S 750 mmHg 81%
04:00 +19°C° 0 mm 2 m/S 750 mmHg 83%
05:00 +19°C° 0 mm 2 m/S 750 mmHg 84%
06:00 +19°C° 0 mm 2 m/S 750 mmHg 86%
07:00 +21°C° 0.1 mm 2 m/S 750 mmHg 81%
08:00 +22°C° 0.1 mm 3 m/S 750 mmHg 76%
09:00 +25°C° 0.1 mm 3 m/S 750 mmHg 71%
10:00 +25°C° 0.3 mm 3 m/S 750 mmHg 66%
11:00 +26°C° 0.3 mm 2 m/S 750 mmHg 61%
12:00 +27°C° 0.3 mm 2 m/S 750 mmHg 56%
13:00 +28°C° 0.3 mm 2 m/S 749 mmHg 55%
14:00 +28°C° 0.3 mm 2 m/S 749 mmHg 54%
15:00 +28°C° 0.3 mm 1 m/S 749 mmHg 53%
16:00 +28°C° 0.4 mm 2 m/S 749 mmHg 58%
17:00 +27°C° 0.4 mm 2 m/S 749 mmHg 63%
18:00 +26°C° 0.4 mm 2 m/S 748 mmHg 68%
19:00 +25°C° 0.1 mm 2 m/S 749 mmHg 72%
20:00 +24°C° 0.1 mm 2 m/S 749 mmHg 75%
21:00 +22°C° 0.1 mm 1 m/S 749 mmHg 79%
22:00 +22°C° 0.1 mm 1 m/S 749 mmHg 80%
23:00 +22°C° 0.1 mm 1 m/S 749 mmHg 81%

Morgen, 16 Juni, Mittwoch

Zeit Temperatur Niederschläge Wind Luftdruck Luftfeuchtigkeit
00:00 +21°C° 0.1 mm 1 m/S 749 mmHg 82%
01:00 +21°C° 0 mm 1 m/S 749 mmHg 82%
02:00 +21°C° 0 mm 1 m/S 749 mmHg 83%
03:00 +21°C° 0 mm 1 m/S 749 mmHg 83%
04:00 +21°C° 0 mm 1 m/S 749 mmHg 83%
05:00 +19°C° 0 mm 0 m/S 749 mmHg 83%
06:00 +20°C° 0 mm 0 m/S 749 mmHg 82%
07:00 +23°C° 0 mm 1 m/S 749 mmHg 77%
08:00 +24°C° 0 mm 1 m/S 750 mmHg 72%
09:00 +26°C° 0 mm 1 m/S 750 mmHg 67%
10:00 +27°C° 0.1 mm 1 m/S 750 mmHg 62%
11:00 +28°C° 0.1 mm 1 m/S 750 mmHg 57%
12:00 +29°C° 0.1 mm 1 m/S 750 mmHg 52%
13:00 +30°C° 0 mm 1 m/S 750 mmHg 50%
14:00 +30°C° 0 mm 1 m/S 750 mmHg 48%
15:00 +31°C° 0 mm 1 m/S 750 mmHg 46%
16:00 +30°C° 0 mm 2 m/S 750 mmHg 52%
17:00 +29°C° 0 mm 2 m/S 750 mmHg 58%
18:00 +28°C° 0 mm 3 m/S 750 mmHg 63%
19:00 +27°C° 0 mm 3 m/S 750 mmHg 67%
20:00 +26°C° 0 mm 3 m/S 750 mmHg 71%
21:00 +23°C° 0 mm 4 m/S 751 mmHg 75%
22:00 +23°C° 0 mm 4 m/S 751 mmHg 77%
23:00 +22°C° 0 mm 4 m/S 751 mmHg 79%

übermorgen, 17 Juni, Donnerstag

Zeit Temperatur Niederschläge Wind Luftdruck Luftfeuchtigkeit
00:00 +21°C° 0 mm 4 m/S 751 mmHg 81%
01:00 +21°C° 0 mm 4 m/S 751 mmHg 83%
02:00 +20°C° 0 mm 4 m/S 751 mmHg 84%
03:00 +20°C° 0 mm 5 m/S 751 mmHg 86%
04:00 +20°C° 0 mm 5 m/S 751 mmHg 87%
05:00 +20°C° 0 mm 5 m/S 752 mmHg 88%
06:00 +20°C° 0 mm 5 m/S 752 mmHg 88%
07:00 +22°C° 0 mm 5 m/S 752 mmHg 83%
08:00 +23°C° 0 mm 5 m/S 753 mmHg 78%
09:00 +24°C° 0 mm 6 m/S 753 mmHg 73%
10:00 +26°C° 0 mm 6 m/S 753 mmHg 69%
11:00 +27°C° 0 mm 6 m/S 753 mmHg 65%
12:00 +28°C° 0 mm 6 m/S 753 mmHg 60%
13:00 +28°C° 0.2 mm 6 m/S 754 mmHg 62%
14:00 +28°C° 0.2 mm 5 m/S 754 mmHg 63%
15:00 +28°C° 0.2 mm 5 m/S 754 mmHg 64%
16:00 +27°C° 0.2 mm 6 m/S 754 mmHg 67%
17:00 +27°C° 0.2 mm 6 m/S 754 mmHg 70%
18:00 +26°C° 0.2 mm 6 m/S 754 mmHg 72%
19:00 +24°C° 0.1 mm 6 m/S 755 mmHg 73%
20:00 +23°C° 0.1 mm 7 m/S 755 mmHg 74%
21:00 +22°C° 0.1 mm 7 m/S 756 mmHg 75%
22:00 +21°C° 0 mm 6 m/S 756 mmHg 74%
23:00 +20°C° 0 mm 6 m/S 756 mmHg 73%

18 Juni, Freitag

Zeit Temperatur Niederschläge Wind Luftdruck Luftfeuchtigkeit
00:00 +20°C° 0 mm 5 m/S 757 mmHg 71%
01:00 +19°C° 0 mm 5 m/S 757 mmHg 72%
02:00 +17°C° 0 mm 5 m/S 757 mmHg 73%
03:00 +16°C° 0 mm 5 m/S 757 mmHg 74%
04:00 +16°C° 0 mm 5 m/S 757 mmHg 77%
05:00 +16°C° 0 mm 5 m/S 758 mmHg 79%
06:00 +16°C° 0 mm 5 m/S 758 mmHg 81%
07:00 +17°C° 0 mm 5 m/S 758 mmHg 76%
08:00 +20°C° 0 mm 5 m/S 758 mmHg 71%
09:00 +21°C° 0 mm 6 m/S 759 mmHg 66%
10:00 +22°C° 0 mm 6 m/S 759 mmHg 62%
11:00 +23°C° 0 mm 6 m/S 759 mmHg 59%
12:00 +24°C° 0 mm 6 m/S 759 mmHg 55%
13:00 +26°C° 0 mm 6 m/S 759 mmHg 54%
14:00 +26°C° 0 mm 6 m/S 759 mmHg 52%
15:00 +26°C° 0 mm 6 m/S 759 mmHg 50%
16:00 +26°C° 0 mm 6 m/S 759 mmHg 53%
17:00 +25°C° 0 mm 5 m/S 759 mmHg 57%
18:00 +25°C° 0 mm 5 m/S 759 mmHg 60%
19:00 +22°C° 0 mm 5 m/S 759 mmHg 65%
20:00 +21°C° 0 mm 4 m/S 759 mmHg 70%
21:00 +19°C° 0 mm 4 m/S 759 mmHg 75%
22:00 +19°C° 0 mm 4 m/S 759 mmHg 75%
23:00 +18°C° 0 mm 4 m/S 760 mmHg 75%

19 Juni, Samstag

Zeit Temperatur Niederschläge Wind Luftdruck Luftfeuchtigkeit
00:00 +17°C° 0 mm 5 m/S 760 mmHg 75%
01:00 +17°C° 0 mm 4 m/S 760 mmHg 77%
02:00 +17°C° 0 mm 4 m/S 760 mmHg 79%
03:00 +15°C° 0 mm 4 m/S 760 mmHg 80%
04:00 +15°C° 0 mm 4 m/S 760 mmHg 80%
05:00 +17°C° 0 mm 4 m/S 761 mmHg 79%
06:00 +17°C° 0 mm 4 m/S 761 mmHg 79%
07:00 +19°C° 0 mm 4 m/S 761 mmHg 72%
08:00 +20°C° 0 mm 5 m/S 761 mmHg 66%
09:00 +22°C° 0 mm 6 m/S 761 mmHg 59%
10:00 +23°C° 0 mm 6 m/S 761 mmHg 56%
11:00 +23°C° 0 mm 6 m/S 761 mmHg 53%
12:00 +24°C° 0 mm 6 m/S 761 mmHg 50%
13:00 +26°C° 0 mm 6 m/S 760 mmHg 49%
14:00 +26°C° 0 mm 6 m/S 760 mmHg 48%
15:00 +26°C° 0 mm 6 m/S 760 mmHg 47%
16:00 +26°C° 0 mm 5 m/S 760 mmHg 50%
17:00 +26°C° 0 mm 5 m/S 759 mmHg 54%
18:00 +26°C° 0 mm 5 m/S 759 mmHg 57%
19:00 +23°C° 0 mm 4 m/S 759 mmHg 64%
20:00 +21°C° 0 mm 4 m/S 759 mmHg 70%
21:00 +19°C° 0 mm 4 m/S 759 mmHg 77%
22:00 +19°C° 0 mm 4 m/S 759 mmHg 77%
23:00 +18°C° 0 mm 4 m/S 759 mmHg 77%

20 Juni, Sonntag

Zeit Temperatur Niederschläge Wind Luftdruck Luftfeuchtigkeit
00:00 +18°C° 0 mm 4 m/S 759 mmHg 77%
01:00 +17°C° 0 mm 4 m/S 759 mmHg 77%
02:00 +17°C° 0 mm 4 m/S 759 mmHg 76%
03:00 +15°C° 0 mm 4 m/S 759 mmHg 76%
04:00 +15°C° 0 mm 4 m/S 759 mmHg 76%
05:00 +17°C° 0 mm 4 m/S 759 mmHg 75%
06:00 +17°C° 0 mm 4 m/S 759 mmHg 75%
07:00 +19°C° 0 mm 5 m/S 759 mmHg 68%
08:00 +21°C° 0 mm 5 m/S 759 mmHg 62%
09:00 +23°C° 0 mm 6 m/S 759 mmHg 55%
10:00 +24°C° 0 mm 6 m/S 759 mmHg 51%
11:00 +26°C° 0 mm 6 m/S 759 mmHg 47%
12:00 +27°C° 0 mm 6 m/S 758 mmHg 43%
13:00 +28°C° 0 mm 6 m/S 758 mmHg 42%
14:00 +28°C° 0 mm 6 m/S 758 mmHg 42%
15:00 +29°C° 0 mm 6 m/S 757 mmHg 41%
16:00 +28°C° 0 mm 6 m/S 757 mmHg 45%
17:00 +28°C° 0 mm 5 m/S 757 mmHg 50%
18:00 +27°C° 0 mm 5 m/S 757 mmHg 54%
19:00 +25°C° 0 mm 5 m/S 757 mmHg 60%
20:00 +23°C° 0 mm 4 m/S 757 mmHg 67%
21:00 +21°C° 0 mm 4 m/S 757 mmHg 74%
22:00 +20°C° 0 mm 4 m/S 757 mmHg 74%
23:00 +20°C° 0 mm 4 m/S 757 mmHg 74%
Mehr zeigen

Wir brauchen deine Erlaubnis

Meteoprog und unser Service Anbieter werden persönliche Daten aufbewahren, so wie Cookies, Geräte Bezeichnung oder ähnliche Technologien von deinem Gerät und Prozess, so wie Persönliche Daten Inhalte und Werbungen, genauso wie social Media und den Verkehr zu analysieren.

  • Aufbewahrung und/oder Zugang zu deiner Geräte Informationen.

    Cookies, Geräte Bezeichnung oder andere Informationen, können aufbewahrt oder Zugang zu deinem Gerät erhalten, für den Grund, der oben angegeben wird.

  • Personalisierte Werbung und Inhalte, Messungen, Einblick in das Publikum und Produkt Entwicklung.

    Werbungen und Inhalte können personalisiert werden, basierend auf ein Profil. Mehr Daten können besser personalisierte Werbungen und Inhalte hinzufügen. Werbung und Inhalte können gezeigt und gemessen werden. Einblicke über das Publikum, welche die Werbung gesehen haben und den Inhalt, können abgeleitet werden. So wie Daten können genutzt werden, um es zu verbessern oder die Benutzer Erfahrung zu verbessern das System und die Software.

Wenn du “Ich stimme zu” klickst, erlaubst du uns, die Cookies zu benutzen die Geräte Bezeichnung, den Web oder ähnliche Technologien zu benutzen. Deine Settings, können in deinem Gerät bei deinem Browser geändert werden.

Für den bestimmten Zweck, berechtigten Interessen beruhen darauf, mehr als auf den Inhalt. Du kannst mehr darüber in unseren Privaten und Cookie Politik lesen.